Netzbetreibername:;SW D�beln GmbH;;
Netz- oder Umspannebene:;Netzgebiet;;
Lastgangtyp:;Summenlast der Netzverluste;;
gesetzliche Grundlage:;� 23c Abs. 3 Nr. 3 EnWG;;
Einheit:;kW;;
Betrachtungszeitraum:;01.01.2023;31.12.2023;
;;;
Datum;von;bis;Wert
01.01.2023;00:00;00:15;252
01.01.2023;00:15;00:30;248
01.01.2023;00:30;00:45;242
01.01.2023;00:45;01:00;238
01.01.2023;01:00;01:15;236
01.01.2023;01:15;01:30;229
01.01.2023;01:30;01:45;224
01.01.2023;01:45;02:00;222
01.01.2023;02:00;02:15;221
01.01.2023;02:15;02:30;222
01.01.2023;02:30;02:45;216
01.01.2023;02:45;03:00;213
01.01.2023;03:00;03:15;214
01.01.2023;03:15;03:30;210
01.01.2023;03:30;03:45;210
01.01.2023;03:45;04:00;214
01.01.2023;04:00;04:15;222
01.01.2023;04:15;04:30;224
01.01.2023;04:30;04:45;226
01.01.2023;04:45;05:00;237
01.01.2023;05:00;05:15;247
01.01.2023;05:15;05:30;243
01.01.2023;05:30;05:45;233
01.01.2023;05:45;06:00;224
01.01.2023;06:00;06:15;205
01.01.2023;06:15;06:30;203
01.01.2023;06:30;06:45;204
01.01.2023;06:45;07:00;206
01.01.2023;07:00;07:15;210
01.01.2023;07:15;07:30;219
01.01.2023;07:30;07:45;221
01.01.2023;07:45;08:00;226
01.01.2023;08:00;08:15;229
01.01.2023;08:15;08:30;233
01.01.2023;08:30;08:45;246
01.01.2023;08:45;09:00;262
01.01.2023;09:00;09:15;272
01.01.2023;09:15;09:30;281
01.01.2023;09:30;09:45;290
01.01.2023;09:45;10:00;291
01.01.2023;10:00;10:15;305
01.01.2023;10:15;10:30;314
01.01.2023;10:30;10:45;327
01.01.2023;10:45;11:00;341
01.01.2023;11:00;11:15;377
01.01.2023;11:15;11:30;398
01.01.2023;11:30;11:45;397
01.01.2023;11:45;12:00;402
01.01.2023;12:00;12:15;368
01.01.2023;12:15;12:30;341
01.01.2023;12:30;12:45;325
01.01.2023;12:45;13:00;320
01.01.2023;13:00;13:15;316
01.01.2023;13:15;13:30;307
01.01.2023;13:30;13:45;294
01.01.2023;13:45;14:00;298
01.01.2023;14:00;14:15;300
01.01.2023;14:15;14:30;310
01.01.2023;14:30;14:45;305
01.01.2023;14:45;15:00;301
01.01.2023;15:00;15:15;305
01.01.2023;15:15;15:30;302
01.01.2023;15:30;15:45;300
01.01.2023;15:45;16:00;317
01.01.2023;16:00;16:15;330
01.01.2023;16:15;16:30;351
01.01.2023;16:30;16:45;383
01.01.2023;16:45;17:00;405
01.01.2023;17:00;17:15;433
01.01.2023;17:15;17:30;446
01.01.2023;17:30;17:45;455
01.01.2023;17:45;18:00;469
01.01.2023;18:00;18:15;472
01.01.2023;18:15;18:30;469
01.01.2023;18:30;18:45;462
01.01.2023;18:45;19:00;455
01.01.2023;19:00;19:15;446
01.01.2023;19:15;19:30;437
01.01.2023;19:30;19:45;430
01.01.2023;19:45;20:00;395
01.01.2023;20:00;20:15;381
01.01.2023;20:15;20:30;372
01.01.2023;20:30;20:45;362
01.01.2023;20:45;21:00;349
01.01.2023;21:00;21:15;327
01.01.2023;21:15;21:30;316
01.01.2023;21:30;21:45;307
01.01.2023;21:45;22:00;309
01.01.2023;22:00;22:15;324
01.01.2023;22:15;22:30;311
01.01.2023;22:30;22:45;288
01.01.2023;22:45;23:00;270
01.01.2023;23:00;23:15;256
01.01.2023;23:15;23:30;246
01.01.2023;23:30;23:45;252
02.01.2023;23:45;00:00;228
02.01.2023;00:00;00:15;222
02.01.2023;00:15;00:30;217
02.01.2023;00:30;00:45;213
02.01.2023;00:45;01:00;213
02.01.2023;01:00;01:15;210
02.01.2023;01:15;01:30;209
02.01.2023;01:30;01:45;209
02.01.2023;01:45;02:00;208
02.01.2023;02:00;02:15;208
02.01.2023;02:15;02:30;208,1942869
02.01.2023;02:30;02:45;207,4503765
02.01.2023;02:45;03:00;206,3852852
02.01.2023;03:00;03:15;215,9040932
02.01.2023;03:15;03:30;220
02.01.2023;03:30;03:45;230
02.01.2023;03:45;04:00;243
02.01.2023;04:00;04:15;260
02.01.2023;04:15;04:30;277
02.01.2023;04:30;04:45;270
02.01.2023;04:45;05:00;279
02.01.2023;05:00;05:15;285
02.01.2023;05:15;05:30;288
02.01.2023;05:30;05:45;286
02.01.2023;05:45;06:00;289
02.01.2023;06:00;06:15;309
02.01.2023;06:15;06:30;331
02.01.2023;06:30;06:45;335
02.01.2023;06:45;07:00;351
02.01.2023;07:00;07:15;375
02.01.2023;07:15;07:30;392
02.01.2023;07:30;07:45;414
02.01.2023;07:45;08:00;433
02.01.2023;08:00;08:15;437
02.01.2023;08:15;08:30;458
02.01.2023;08:30;08:45;465
02.01.2023;08:45;09:00;471
02.01.2023;09:00;09:15;466
02.01.2023;09:15;09:30;466
02.01.2023;09:30;09:45;480
02.01.2023;09:45;10:00;481
02.01.2023;10:00;10:15;487
02.01.2023;10:15;10:30;497
02.01.2023;10:30;10:45;495
02.01.2023;10:45;11:00;487
02.01.2023;11:00;11:15;501
02.01.2023;11:15;11:30;501
02.01.2023;11:30;11:45;539
02.01.2023;11:45;12:00;543
02.01.2023;12:00;12:15;520
02.01.2023;12:15;12:30;491
02.01.2023;12:30;12:45;489
02.01.2023;12:45;13:00;481
02.01.2023;13:00;13:15;436
02.01.2023;13:15;13:30;429
02.01.2023;13:30;13:45;420
02.01.2023;13:45;14:00;442
02.01.2023;14:00;14:15;449
02.01.2023;14:15;14:30;436
02.01.2023;14:30;14:45;442
02.01.2023;14:45;15:00;428
02.01.2023;15:00;15:15;421
02.01.2023;15:15;15:30;428
02.01.2023;15:30;15:45;429
02.01.2023;15:45;16:00;424
02.01.2023;16:00;16:15;442
02.01.2023;16:15;16:30;475
02.01.2023;16:30;16:45;511
02.01.2023;16:45;17:00;524
02.01.2023;17:00;17:15;535
02.01.2023;17:15;17:30;557
02.01.2023;17:30;17:45;582
02.01.2023;17:45;18:00;589
02.01.2023;18:00;18:15;585
02.01.2023;18:15;18:30;576
02.01.2023;18:30;18:45;563
02.01.2023;18:45;19:00;553
02.01.2023;19:00;19:15;578
02.01.2023;19:15;19:30;555
02.01.2023;19:30;19:45;518
02.01.2023;19:45;20:00;506
02.01.2023;20:00;20:15;484
02.01.2023;20:15;20:30;464
02.01.2023;20:30;20:45;438
02.01.2023;20:45;21:00;421
02.01.2023;21:00;21:15;389
02.01.2023;21:15;21:30;370
02.01.2023;21:30;21:45;354
02.01.2023;21:45;22:00;348
02.01.2023;22:00;22:15;345
02.01.2023;22:15;22:30;325
02.01.2023;22:30;22:45;312
02.01.2023;22:45;23:00;302
02.01.2023;23:00;23:15;286
02.01.2023;23:15;23:30;273
02.01.2023;23:30;23:45;282
03.01.2023;23:45;00:00;249
03.01.2023;00:00;00:15;241
03.01.2023;00:15;00:30;241
03.01.2023;00:30;00:45;240
03.01.2023;00:45;01:00;236
03.01.2023;01:00;01:15;239
03.01.2023;01:15;01:30;239
03.01.2023;01:30;01:45;240
03.01.2023;01:45;02:00;237
03.01.2023;02:00;02:15;237
03.01.2023;02:15;02:30;242
03.01.2023;02:30;02:45;247
03.01.2023;02:45;03:00;253
03.01.2023;03:00;03:15;261
03.01.2023;03:15;03:30;268
03.01.2023;03:30;03:45;283
03.01.2023;03:45;04:00;295
03.01.2023;04:00;04:15;310
03.01.2023;04:15;04:30;321
03.01.2023;04:30;04:45;337
03.01.2023;04:45;05:00;342
03.01.2023;05:00;05:15;357
03.01.2023;05:15;05:30;358
03.01.2023;05:30;05:45;353
03.01.2023;05:45;06:00;361
03.01.2023;06:00;06:15;361
03.01.2023;06:15;06:30;383
03.01.2023;06:30;06:45;404
03.01.2023;06:45;07:00;422
03.01.2023;07:00;07:15;446
03.01.2023;07:15;07:30;477
03.01.2023;07:30;07:45;511
03.01.2023;07:45;08:00;519
03.01.2023;08:00;08:15;525
03.01.2023;08:15;08:30;509
03.01.2023;08:30;08:45;513
03.01.2023;08:45;09:00;510
03.01.2023;09:00;09:15;492
03.01.2023;09:15;09:30;494
03.01.2023;09:30;09:45;497
03.01.2023;09:45;10:00;517
03.01.2023;10:00;10:15;508
03.01.2023;10:15;10:30;493
03.01.2023;10:30;10:45;470
03.01.2023;10:45;11:00;470
03.01.2023;11:00;11:15;482
03.01.2023;11:15;11:30;486
03.01.2023;11:30;11:45;506
03.01.2023;11:45;12:00;490
03.01.2023;12:00;12:15;510
03.01.2023;12:15;12:30;505
03.01.2023;12:30;12:45;495
03.01.2023;12:45;13:00;474
03.01.2023;13:00;13:15;449
03.01.2023;13:15;13:30;427
03.01.2023;13:30;13:45;433
03.01.2023;13:45;14:00;440
03.01.2023;14:00;14:15;459
03.01.2023;14:15;14:30;455
03.01.2023;14:30;14:45;463
03.01.2023;14:45;15:00;461
03.01.2023;15:00;15:15;462
03.01.2023;15:15;15:30;461
03.01.2023;15:30;15:45;452
03.01.2023;15:45;16:00;461
03.01.2023;16:00;16:15;473
03.01.2023;16:15;16:30;492
03.01.2023;16:30;16:45;541
03.01.2023;16:45;17:00;565
03.01.2023;17:00;17:15;577
03.01.2023;17:15;17:30;614
03.01.2023;17:30;17:45;619
03.01.2023;17:45;18:00;661
03.01.2023;18:00;18:15;637
03.01.2023;18:15;18:30;610
03.01.2023;18:30;18:45;596
03.01.2023;18:45;19:00;579
03.01.2023;19:00;19:15;577
03.01.2023;19:15;19:30;575
03.01.2023;19:30;19:45;550
03.01.2023;19:45;20:00;524
03.01.2023;20:00;20:15;494
03.01.2023;20:15;20:30;458
03.01.2023;20:30;20:45;433
03.01.2023;20:45;21:00;410
03.01.2023;21:00;21:15;390
03.01.2023;21:15;21:30;377
03.01.2023;21:30;21:45;364
03.01.2023;21:45;22:00;359
03.01.2023;22:00;22:15;365
03.01.2023;22:15;22:30;341
03.01.2023;22:30;22:45;328
03.01.2023;22:45;23:00;313
03.01.2023;23:00;23:15;302
03.01.2023;23:15;23:30;296
03.01.2023;23:30;23:45;281
04.01.2023;23:45;00:00;272
04.01.2023;00:00;00:15;263
04.01.2023;00:15;00:30;270
04.01.2023;00:30;00:45;274
04.01.2023;00:45;01:00;259
04.01.2023;01:00;01:15;262
04.01.2023;01:15;01:30;262
04.01.2023;01:30;01:45;270
04.01.2023;01:45;02:00;275
04.01.2023;02:00;02:15;286
04.01.2023;02:15;02:30;288
04.01.2023;02:30;02:45;293
04.01.2023;02:45;03:00;304
04.01.2023;03:00;03:15;311
04.01.2023;03:15;03:30;332
04.01.2023;03:30;03:45;356
04.01.2023;03:45;04:00;351
04.01.2023;04:00;04:15;362
04.01.2023;04:15;04:30;363
04.01.2023;04:30;04:45;363
04.01.2023;04:45;05:00;366
04.01.2023;05:00;05:15;367
04.01.2023;05:15;05:30;375
04.01.2023;05:30;05:45;372
04.01.2023;05:45;06:00;386
04.01.2023;06:00;06:15;390
04.01.2023;06:15;06:30;414
04.01.2023;06:30;06:45;428
04.01.2023;06:45;07:00;450
04.01.2023;07:00;07:15;480
04.01.2023;07:15;07:30;511
04.01.2023;07:30;07:45;539
04.01.2023;07:45;08:00;551
04.01.2023;08:00;08:15;553
04.01.2023;08:15;08:30;555
04.01.2023;08:30;08:45;553
04.01.2023;08:45;09:00;566
04.01.2023;09:00;09:15;575
04.01.2023;09:15;09:30;567
04.01.2023;09:30;09:45;565
04.01.2023;09:45;10:00;573
04.01.2023;10:00;10:15;592
04.01.2023;10:15;10:30;595
04.01.2023;10:30;10:45;592
04.01.2023;10:45;11:00;595
04.01.2023;11:00;11:15;612
04.01.2023;11:15;11:30;636
04.01.2023;11:30;11:45;644
04.01.2023;11:45;12:00;633
04.01.2023;12:00;12:15;599
04.01.2023;12:15;12:30;590
04.01.2023;12:30;12:45;602
04.01.2023;12:45;13:00;586
04.01.2023;13:00;13:15;574
04.01.2023;13:15;13:30;573
04.01.2023;13:30;13:45;564
04.01.2023;13:45;14:00;553
04.01.2023;14:00;14:15;556
04.01.2023;14:15;14:30;562
04.01.2023;14:30;14:45;565
04.01.2023;14:45;15:00;570
04.01.2023;15:00;15:15;561
04.01.2023;15:15;15:30;564
04.01.2023;15:30;15:45;549
04.01.2023;15:45;16:00;545
04.01.2023;16:00;16:15;548
04.01.2023;16:15;16:30;575
04.01.2023;16:30;16:45;590
04.01.2023;16:45;17:00;607
04.01.2023;17:00;17:15;615
04.01.2023;17:15;17:30;628
04.01.2023;17:30;17:45;643
04.01.2023;17:45;18:00;665
04.01.2023;18:00;18:15;652
04.01.2023;18:15;18:30;643
04.01.2023;18:30;18:45;624
04.01.2023;18:45;19:00;616
04.01.2023;19:00;19:15;608
04.01.2023;19:15;19:30;596
04.01.2023;19:30;19:45;567
04.01.2023;19:45;20:00;549
04.01.2023;20:00;20:15;515
04.01.2023;20:15;20:30;494
04.01.2023;20:30;20:45;461
04.01.2023;20:45;21:00;438
04.01.2023;21:00;21:15;417
04.01.2023;21:15;21:30;401
04.01.2023;21:30;21:45;387
04.01.2023;21:45;22:00;368
04.01.2023;22:00;22:15;373
04.01.2023;22:15;22:30;361
04.01.2023;22:30;22:45;337
04.01.2023;22:45;23:00;316
04.01.2023;23:00;23:15;303
04.01.2023;23:15;23:30;289
04.01.2023;23:30;23:45;282
05.01.2023;23:45;00:00;279
05.01.2023;00:00;00:15;263
05.01.2023;00:15;00:30;253
05.01.2023;00:30;00:45;252
05.01.2023;00:45;01:00;249
05.01.2023;01:00;01:15;246
05.01.2023;01:15;01:30;246
05.01.2023;01:30;01:45;245
05.01.2023;01:45;02:00;245
05.01.2023;02:00;02:15;242
05.01.2023;02:15;02:30;242
05.01.2023;02:30;02:45;239
05.01.2023;02:45;03:00;241
05.01.2023;03:00;03:15;246
05.01.2023;03:15;03:30;252
05.01.2023;03:30;03:45;266
05.01.2023;03:45;04:00;279
05.01.2023;04:00;04:15;292
05.01.2023;04:15;04:30;296
05.01.2023;04:30;04:45;310
05.01.2023;04:45;05:00;324
05.01.2023;05:00;05:15;347
05.01.2023;05:15;05:30;352
05.01.2023;05:30;05:45;359
05.01.2023;05:45;06:00;382
05.01.2023;06:00;06:15;379
05.01.2023;06:15;06:30;402
05.01.2023;06:30;06:45;427
05.01.2023;06:45;07:00;450
05.01.2023;07:00;07:15;464
05.01.2023;07:15;07:30;502
05.01.2023;07:30;07:45;531
05.01.2023;07:45;08:00;544
05.01.2023;08:00;08:15;535
05.01.2023;08:15;08:30;532
05.01.2023;08:30;08:45;536
05.01.2023;08:45;09:00;548
05.01.2023;09:00;09:15;542
05.01.2023;09:15;09:30;548
05.01.2023;09:30;09:45;571
05.01.2023;09:45;10:00;551
05.01.2023;10:00;10:15;551
05.01.2023;10:15;10:30;532
05.01.2023;10:30;10:45;516
05.01.2023;10:45;11:00;563
05.01.2023;11:00;11:15;546
05.01.2023;11:15;11:30;554
05.01.2023;11:30;11:45;575
05.01.2023;11:45;12:00;549
05.01.2023;12:00;12:15;541
05.01.2023;12:15;12:30;529
05.01.2023;12:30;12:45;540
05.01.2023;12:45;13:00;518
05.01.2023;13:00;13:15;515
05.01.2023;13:15;13:30;501
05.01.2023;13:30;13:45;507
05.01.2023;13:45;14:00;477
05.01.2023;14:00;14:15;508
05.01.2023;14:15;14:30;504
05.01.2023;14:30;14:45;524
05.01.2023;14:45;15:00;524
05.01.2023;15:00;15:15;519
05.01.2023;15:15;15:30;515
05.01.2023;15:30;15:45;499
05.01.2023;15:45;16:00;500
05.01.2023;16:00;16:15;507
05.01.2023;16:15;16:30;554
05.01.2023;16:30;16:45;569
05.01.2023;16:45;17:00;584
05.01.2023;17:00;17:15;603
05.01.2023;17:15;17:30;615
05.01.2023;17:30;17:45;629
05.01.2023;17:45;18:00;653
05.01.2023;18:00;18:15;635
05.01.2023;18:15;18:30;631
05.01.2023;18:30;18:45;611
05.01.2023;18:45;19:00;597
05.01.2023;19:00;19:15;607
05.01.2023;19:15;19:30;579
05.01.2023;19:30;19:45;553
05.01.2023;19:45;20:00;533
05.01.2023;20:00;20:15;508
05.01.2023;20:15;20:30;488
05.01.2023;20:30;20:45;463
05.01.2023;20:45;21:00;446
05.01.2023;21:00;21:15;420
05.01.2023;21:15;21:30;395
05.01.2023;21:30;21:45;378
05.01.2023;21:45;22:00;382
05.01.2023;22:00;22:15;377
05.01.2023;22:15;22:30;360
05.01.2023;22:30;22:45;336
05.01.2023;22:45;23:00;314
05.01.2023;23:00;23:15;309
05.01.2023;23:15;23:30;292
05.01.2023;23:30;23:45;284
06.01.2023;23:45;00:00;277
06.01.2023;00:00;00:15;265
06.01.2023;00:15;00:30;259
06.01.2023;00:30;00:45;259
06.01.2023;00:45;01:00;256
06.01.2023;01:00;01:15;255
06.01.2023;01:15;01:30;257
06.01.2023;01:30;01:45;259
06.01.2023;01:45;02:00;262
06.01.2023;02:00;02:15;267
06.01.2023;02:15;02:30;267
06.01.2023;02:30;02:45;270
06.01.2023;02:45;03:00;275
06.01.2023;03:00;03:15;287
06.01.2023;03:15;03:30;295
06.01.2023;03:30;03:45;312
06.01.2023;03:45;04:00;315
06.01.2023;04:00;04:15;328
06.01.2023;04:15;04:30;337
06.01.2023;04:30;04:45;342
06.01.2023;04:45;05:00;351
06.01.2023;05:00;05:15;365
06.01.2023;05:15;05:30;356
06.01.2023;05:30;05:45;356
06.01.2023;05:45;06:00;375
06.01.2023;06:00;06:15;381
06.01.2023;06:15;06:30;409
06.01.2023;06:30;06:45;432
06.01.2023;06:45;07:00;461
06.01.2023;07:00;07:15;484
06.01.2023;07:15;07:30;499
06.01.2023;07:30;07:45;534
06.01.2023;07:45;08:00;550
06.01.2023;08:00;08:15;556
06.01.2023;08:15;08:30;547
06.01.2023;08:30;08:45;534
06.01.2023;08:45;09:00;535
06.01.2023;09:00;09:15;512
06.01.2023;09:15;09:30;519
06.01.2023;09:30;09:45;536
06.01.2023;09:45;10:00;566
06.01.2023;10:00;10:15;575
06.01.2023;10:15;10:30;571
06.01.2023;10:30;10:45;559
06.01.2023;10:45;11:00;551
06.01.2023;11:00;11:15;563
06.01.2023;11:15;11:30;567
06.01.2023;11:30;11:45;576
06.01.2023;11:45;12:00;589
06.01.2023;12:00;12:15;560
06.01.2023;12:15;12:30;557
06.01.2023;12:30;12:45;570
06.01.2023;12:45;13:00;561
06.01.2023;13:00;13:15;542
06.01.2023;13:15;13:30;517
06.01.2023;13:30;13:45;500
06.01.2023;13:45;14:00;488
06.01.2023;14:00;14:15;487
06.01.2023;14:15;14:30;487
06.01.2023;14:30;14:45;492
06.01.2023;14:45;15:00;497
06.01.2023;15:00;15:15;507
06.01.2023;15:15;15:30;497
06.01.2023;15:30;15:45;492
06.01.2023;15:45;16:00;487
06.01.2023;16:00;16:15;499
06.01.2023;16:15;16:30;511
06.01.2023;16:30;16:45;554
06.01.2023;16:45;17:00;564
06.01.2023;17:00;17:15;584
06.01.2023;17:15;17:30;601
06.01.2023;17:30;17:45;627
06.01.2023;17:45;18:00;631
06.01.2023;18:00;18:15;617
06.01.2023;18:15;18:30;598
06.01.2023;18:30;18:45;577
06.01.2023;18:45;19:00;563
06.01.2023;19:00;19:15;570
06.01.2023;19:15;19:30;541
06.01.2023;19:30;19:45;523
06.01.2023;19:45;20:00;508
06.01.2023;20:00;20:15;475
06.01.2023;20:15;20:30;455
06.01.2023;20:30;20:45;426
06.01.2023;20:45;21:00;406
06.01.2023;21:00;21:15;384
06.01.2023;21:15;21:30;381
06.01.2023;21:30;21:45;369
06.01.2023;21:45;22:00;362
06.01.2023;22:00;22:15;364
06.01.2023;22:15;22:30;344
06.01.2023;22:30;22:45;329
06.01.2023;22:45;23:00;318
06.01.2023;23:00;23:15;301
06.01.2023;23:15;23:30;290
06.01.2023;23:30;23:45;277
07.01.2023;23:45;00:00;267
07.01.2023;00:00;00:15;252
07.01.2023;00:15;00:30;248
07.01.2023;00:30;00:45;246
07.01.2023;00:45;01:00;240
07.01.2023;01:00;01:15;234
07.01.2023;01:15;01:30;235
07.01.2023;01:30;01:45;234
07.01.2023;01:45;02:00;232
07.01.2023;02:00;02:15;235
07.01.2023;02:15;02:30;235
07.01.2023;02:30;02:45;233
07.01.2023;02:45;03:00;238
07.01.2023;03:00;03:15;240
07.01.2023;03:15;03:30;246
07.01.2023;03:30;03:45;256
07.01.2023;03:45;04:00;271
07.01.2023;04:00;04:15;279
07.01.2023;04:15;04:30;291
07.01.2023;04:30;04:45;301
07.01.2023;04:45;05:00;304
07.01.2023;05:00;05:15;302
07.01.2023;05:15;05:30;288
07.01.2023;05:30;05:45;276
07.01.2023;05:45;06:00;267
07.01.2023;06:00;06:15;248
07.01.2023;06:15;06:30;249
07.01.2023;06:30;06:45;262
07.01.2023;06:45;07:00;267
07.01.2023;07:00;07:15;279
07.01.2023;07:15;07:30;305
07.01.2023;07:30;07:45;321
07.01.2023;07:45;08:00;333
07.01.2023;08:00;08:15;347
07.01.2023;08:15;08:30;370
07.01.2023;08:30;08:45;389
07.01.2023;08:45;09:00;390
07.01.2023;09:00;09:15;403
07.01.2023;09:15;09:30;412
07.01.2023;09:30;09:45;435
07.01.2023;09:45;10:00;436
07.01.2023;10:00;10:15;427
07.01.2023;10:15;10:30;449
07.01.2023;10:30;10:45;458
07.01.2023;10:45;11:00;462
07.01.2023;11:00;11:15;490
07.01.2023;11:15;11:30;523
07.01.2023;11:30;11:45;530
07.01.2023;11:45;12:00;518
07.01.2023;12:00;12:15;489
07.01.2023;12:15;12:30;439
07.01.2023;12:30;12:45;407
07.01.2023;12:45;13:00;375
07.01.2023;13:00;13:15;361
07.01.2023;13:15;13:30;350
07.01.2023;13:30;13:45;344
07.01.2023;13:45;14:00;340
07.01.2023;14:00;14:15;372
07.01.2023;14:15;14:30;380
07.01.2023;14:30;14:45;383
07.01.2023;14:45;15:00;378
07.01.2023;15:00;15:15;375
07.01.2023;15:15;15:30;369
07.01.2023;15:30;15:45;364
07.01.2023;15:45;16:00;365
07.01.2023;16:00;16:15;378
07.01.2023;16:15;16:30;393
07.01.2023;16:30;16:45;426
07.01.2023;16:45;17:00;461
07.01.2023;17:00;17:15;482
07.01.2023;17:15;17:30;486
07.01.2023;17:30;17:45;499
07.01.2023;17:45;18:00;499
07.01.2023;18:00;18:15;521
07.01.2023;18:15;18:30;505
07.01.2023;18:30;18:45;500
07.01.2023;18:45;19:00;475
07.01.2023;19:00;19:15;484
07.01.2023;19:15;19:30;464
07.01.2023;19:30;19:45;445
07.01.2023;19:45;20:00;428
07.01.2023;20:00;20:15;415
07.01.2023;20:15;20:30;396
07.01.2023;20:30;20:45;380
07.01.2023;20:45;21:00;366
07.01.2023;21:00;21:15;357
07.01.2023;21:15;21:30;336
07.01.2023;21:30;21:45;327
07.01.2023;21:45;22:00;321
07.01.2023;22:00;22:15;331
07.01.2023;22:15;22:30;331
07.01.2023;22:30;22:45;320
07.01.2023;22:45;23:00;310
07.01.2023;23:00;23:15;296
07.01.2023;23:15;23:30;281
07.01.2023;23:30;23:45;276
08.01.2023;23:45;00:00;261
08.01.2023;00:00;00:15;251
08.01.2023;00:15;00:30;253
08.01.2023;00:30;00:45;245
08.01.2023;00:45;01:00;240
08.01.2023;01:00;01:15;235
08.01.2023;01:15;01:30;240
08.01.2023;01:30;01:45;237
08.01.2023;01:45;02:00;237
08.01.2023;02:00;02:15;242
08.01.2023;02:15;02:30;251
08.01.2023;02:30;02:45;250
08.01.2023;02:45;03:00;257
08.01.2023;03:00;03:15;272
08.01.2023;03:15;03:30;277
08.01.2023;03:30;03:45;286
08.01.2023;03:45;04:00;293
08.01.2023;04:00;04:15;285
08.01.2023;04:15;04:30;292
08.01.2023;04:30;04:45;292
08.01.2023;04:45;05:00;288
08.01.2023;05:00;05:15;286
08.01.2023;05:15;05:30;279
08.01.2023;05:30;05:45;264
08.01.2023;05:45;06:00;253
08.01.2023;06:00;06:15;225
08.01.2023;06:15;06:30;225
08.01.2023;06:30;06:45;230
08.01.2023;06:45;07:00;237
08.01.2023;07:00;07:15;244
08.01.2023;07:15;07:30;257
08.01.2023;07:30;07:45;278
08.01.2023;07:45;08:00;292
08.01.2023;08:00;08:15;298
08.01.2023;08:15;08:30;325
08.01.2023;08:30;08:45;355
08.01.2023;08:45;09:00;357
08.01.2023;09:00;09:15;390
08.01.2023;09:15;09:30;388
08.01.2023;09:30;09:45;400
08.01.2023;09:45;10:00;406
08.01.2023;10:00;10:15;411
08.01.2023;10:15;10:30;439
08.01.2023;10:30;10:45;456
08.01.2023;10:45;11:00;484
08.01.2023;11:00;11:15;518
08.01.2023;11:15;11:30;557
08.01.2023;11:30;11:45;558
08.01.2023;11:45;12:00;567
08.01.2023;12:00;12:15;520
08.01.2023;12:15;12:30;479
08.01.2023;12:30;12:45;447
08.01.2023;12:45;13:00;415
08.01.2023;13:00;13:15;398
08.01.2023;13:15;13:30;378
08.01.2023;13:30;13:45;359
08.01.2023;13:45;14:00;364
08.01.2023;14:00;14:15;377
08.01.2023;14:15;14:30;366
08.01.2023;14:30;14:45;361
08.01.2023;14:45;15:00;352
08.01.2023;15:00;15:15;361
08.01.2023;15:15;15:30;355
08.01.2023;15:30;15:45;344
08.01.2023;15:45;16:00;354
08.01.2023;16:00;16:15;357
08.01.2023;16:15;16:30;372
08.01.2023;16:30;16:45;412
08.01.2023;16:45;17:00;425
08.01.2023;17:00;17:15;458
08.01.2023;17:15;17:30;492
08.01.2023;17:30;17:45;502
08.01.2023;17:45;18:00;512
08.01.2023;18:00;18:15;521
08.01.2023;18:15;18:30;516
08.01.2023;18:30;18:45;509
08.01.2023;18:45;19:00;501
08.01.2023;19:00;19:15;476
08.01.2023;19:15;19:30;463
08.01.2023;19:30;19:45;458
08.01.2023;19:45;20:00;437
08.01.2023;20:00;20:15;432
08.01.2023;20:15;20:30;414
08.01.2023;20:30;20:45;382
08.01.2023;20:45;21:00;363
08.01.2023;21:00;21:15;348
08.01.2023;21:15;21:30;333
08.01.2023;21:30;21:45;325
08.01.2023;21:45;22:00;337
08.01.2023;22:00;22:15;340
08.01.2023;22:15;22:30;324
08.01.2023;22:30;22:45;310
08.01.2023;22:45;23:00;302
08.01.2023;23:00;23:15;281
08.01.2023;23:15;23:30;276
08.01.2023;23:30;23:45;268
09.01.2023;23:45;00:00;257
09.01.2023;00:00;00:15;249
09.01.2023;00:15;00:30;248
09.01.2023;00:30;00:45;246
09.01.2023;00:45;01:00;247
09.01.2023;01:00;01:15;255
09.01.2023;01:15;01:30;253
09.01.2023;01:30;01:45;250
09.01.2023;01:45;02:00;255
09.01.2023;02:00;02:15;262
09.01.2023;02:15;02:30;267
09.01.2023;02:30;02:45;264
09.01.2023;02:45;03:00;267
09.01.2023;03:00;03:15;275
09.01.2023;03:15;03:30;279
09.01.2023;03:30;03:45;290
09.01.2023;03:45;04:00;312
09.01.2023;04:00;04:15;315
09.01.2023;04:15;04:30;330
09.01.2023;04:30;04:45;341
09.01.2023;04:45;05:00;346
09.01.2023;05:00;05:15;357
09.01.2023;05:15;05:30;358
09.01.2023;05:30;05:45;367
09.01.2023;05:45;06:00;373
09.01.2023;06:00;06:15;389
09.01.2023;06:15;06:30;421
09.01.2023;06:30;06:45;433
09.01.2023;06:45;07:00;453
09.01.2023;07:00;07:15;485
09.01.2023;07:15;07:30;511
09.01.2023;07:30;07:45;538
09.01.2023;07:45;08:00;572
09.01.2023;08:00;08:15;570
09.01.2023;08:15;08:30;563
09.01.2023;08:30;08:45;570
09.01.2023;08:45;09:00;582
09.01.2023;09:00;09:15;583
09.01.2023;09:15;09:30;598
09.01.2023;09:30;09:45;589
09.01.2023;09:45;10:00;602
09.01.2023;10:00;10:15;601
09.01.2023;10:15;10:30;585
09.01.2023;10:30;10:45;585
09.01.2023;10:45;11:00;587
09.01.2023;11:00;11:15;586
09.01.2023;11:15;11:30;576
09.01.2023;11:30;11:45;560
09.01.2023;11:45;12:00;576
09.01.2023;12:00;12:15;580
09.01.2023;12:15;12:30;534
09.01.2023;12:30;12:45;538
09.01.2023;12:45;13:00;504
09.01.2023;13:00;13:15;467
09.01.2023;13:15;13:30;485
09.01.2023;13:30;13:45;510
09.01.2023;13:45;14:00;509
09.01.2023;14:00;14:15;522
09.01.2023;14:15;14:30;519
09.01.2023;14:30;14:45;525
09.01.2023;14:45;15:00;510
09.01.2023;15:00;15:15;495
09.01.2023;15:15;15:30;492
09.01.2023;15:30;15:45;497
09.01.2023;15:45;16:00;486
09.01.2023;16:00;16:15;471
09.01.2023;16:15;16:30;491
09.01.2023;16:30;16:45;512
09.01.2023;16:45;17:00;549
09.01.2023;17:00;17:15;580
09.01.2023;17:15;17:30;591
09.01.2023;17:30;17:45;616
09.01.2023;17:45;18:00;626
09.01.2023;18:00;18:15;613
09.01.2023;18:15;18:30;595
09.01.2023;18:30;18:45;589
09.01.2023;18:45;19:00;581
09.01.2023;19:00;19:15;583
09.01.2023;19:15;19:30;561